Wind_Speed
22 20 17 16 15 15 13 13 14 11 10 8 6 4 3 3 3 2 0 1 1 3 5 5 7 7 8 8 10 12 13 14 14 15 16 17 18 19 20 19 19 19 20 21 22 24 25 25 26
23 21 19 18 17 15 13 12 13 12 9 8 6 4 3 4 3 4 2 3 6 8 9 10 11 11 11 12 12 13 13 13 15 16 17 18 19 21 21 21 21 21 21 22 24 25 27 28 30
23 22 20 19 18 15 13 11 11 10 9 8 7 5 5 4 5 5 6 10 13 14 15 15 14 12 12 12 13 14 15 16 18 18 19 20 22 24 24 23 22 23 22 23 25 27 28 30 31
24 22 21 20 19 15 12 12 14 11 9 8 7 8 6 7 8 11 14 16 17 18 17 14 12 12 12 13 15 16 18 21 22 21 21 23 23 24 25 24 24 24 24 25 26 27 29 31 33
26 24 22 22 19 17 17 16 16 12 11 9 9 8 8 10 12 17 18 18 18 17 15 13 13 13 13 14 15 18 20 21 22 23 23 22 23 25 26 25 24 24 25 25 27 29 32 34 37
27 24 22 22 22 19 17 16 14 12 11 11 10 10 11 12 13 16 18 18 18 17 15 15 15 16 15 16 17 19 21 22 24 25 26 24 24 26 28 26 24 24 26 28 30 33 36 40 42
29 27 25 26 23 18 17 16 14 13 12 13 13 13 14 15 15 17 17 17 17 15 14 14 14 14 14 15 17 20 22 24 25 26 26 26 25 28 29 26 25 25 28 31 35 38 42 46 48
29 27 27 27 25 21 19 19 15 14 15 15 15 17 15 17 17 17 18 17 15 12 11 10 10 11 12 14 18 20 23 25 26 27 27 28 27 30 30 26 25 27 30 33 37 42 47 51 50
31 28 28 29 27 24 21 20 18 15 15 16 18 19 18 19 19 17 17 14 13 10 7 6 6 8 11 14 17 20 23 25 27 28 28 29 28 31 29 25 26 29 31 36 41 47 52 54 52
33 31 31 30 28 25 23 24 21 19 18 18 20 20 19 20 19 18 16 14 11 9 6 3 1 5 9 12 16 19 22 25 27 28 29 30 29 30 28 25 26 29 33 38 44 49 54 59 57
36 33 33 32 29 25 25 26 23 20 19 20 21 21 22 21 21 18 17 14 12 9 7 5 2 4 8 10 14 18 22 25 28 30 30 31 29 30 29 25 27 29 34 40 44 50 58 64 58
40 37 35 33 30 28 29 28 24 22 23 21 23 25 24 23 22 21 17 16 14 11 9 7 5 4 7 8 12 17 22 26 29 30 30 31 30 30 29 25 27 30 34 39 43 52 58 62 54
43 39 38 36 33 32 30 28 25 24 25 23 24 27 26 25 24 22 20 18 15 12 12 9 8 7 9 11 14 18 23 26 29 30 31 30 30 29 28 24 26 28 34 37 39 46 53 60 60
44 42 42 41 36 35 32 29 25 27 27 23 23 26 28 28 27 25 24 21 19 16 14 12 11 7 8 11 15 20 23 25 28 30 31 30 29 29 28 24 25 27 32 36 35 40 49 61 59
45 45 45 44 40 40 37 31 25 30 27 26 25 26 28 30 29 29 27 25 23 21 18 15 13 12 9 10 15 20 23 26 28 30 31 29 29 28 28 23 24 26 31 34 31 36 45 58 60
47 48 46 46 45 44 42 32 33 31 30 29 27 26 28 30 30 30 30 29 27 26 23 20 17 15 14 12 17 21 23 26 28 29 29 29 28 27 28 23 22 24 29 31 28 33 42 53 57
48 49 47 47 49 47 47 38 38 36 35 33 31 29 29 30 31 31 31 31 30 29 26 24 22 19 17 17 17 19 25 29 29 30 28 28 27 26 27 23 21 22 27 30 29 30 38 46 53
45 47 49 49 51 51 50 44 43 42 39 36 34 32 29 29 30 32 31 31 30 30 30 27 25 22 21 21 19 20 24 33 30 30 28 27 25 25 25 24 19 20 23 28 30 27 33 39 46
49 50 48 48 53 53 52 49 47 47 45 40 39 37 33 31 33 31 30 31 31 30 31 31 29 26 24 23 21 20 20 31 30 28 27 28 25 24 24 24 19 19 20 25 28 27 27 33 37
47 47 48 46 50 54 54 52 49 50 49 45 43 42 38 34 33 33 32 30 30 31 31 31 30 31 29 27 23 22 24 31 28 26 26 26 26 23 22 23 19 17 17 21 24 27 26 27 29
47 49 46 47 50 53 54 56 51 50 50 48 46 45 43 39 36 35 34 33 33 31 32 32 30 30 29 29 27 30 29 32 26 24 24 25 25 22 21 20 20 17 16 17 21 23 24 25 25
54 51 47 47 49 52 52 57 50 50 51 50 47 46 46 44 42 39 37 35 33 33 34 33 33 33 31 31 31 30 31 30 27 25 23 23 23 22 20 18 20 17 15 14 18 20 21 21 23
46 47 49 51 51 52 52 55 49 47 50 48 47 47 46 46 45 43 41 39 38 35 34 34 33 31 30 31 30 30 29 28 26 24 24 22 21 21 19 17 18 18 16 13 14 16 19 18 18
45 46 47 48 52 58 54 50 54 43 42 44 45 45 44 44 45 43 42 43 40 37 34 34 34 34 32 31 30 29 28 27 26 23 24 22 21 20 18 17 16 18 16 13 13 14 14 16 15
48 46 48 51 53 54 53 54 55 43 38 38 40 41 42 42 40 42 43 43 42 38 37 36 36 35 34 32 31 30 28 27 27 24 24 22 21 20 18 17 16 16 18 14 12 13 12 13 13
50 48 46 43 43 46 47 46 45 42 40 43 44 41 40 39 38 38 39 41 44 42 39 38 37 36 35 33 32 31 30 28 27 25 24 22 20 20 18 17 16 16 17 17 14 12 12 12 11
58 53 48 47 45 41 41 40 40 37 32 34 36 37 38 38 38 39 39 38 39 40 39 38 39 38 36 34 32 31 30 29 28 26 25 23 21 20 19 17 16 17 18 18 16 14 13 13 11
63 55 53 51 48 46 41 37 35 36 27 27 29 32 33 35 34 33 35 38 36 36 35 36 36 35 33 32 31 30 30 29 28 27 26 24 22 20 20 17 17 17 19 20 18 16 14 14 15
68 69 64 59 55 50 46 39 35 31 24 21 17 19 24 29 31 28 28 29 34 32 32 31 30 31 33 33 31 32 31 29 28 27 27 24 23 22 21 19 17 17 18 20 20 17 16 15 15
70 67 61 60 58 54 50 44 38 33 27 26 22 16 14 18 21 20 23 25 30 28 28 31 31 29 29 31 32 32 30 30 29 28 27 24 23 23 22 20 18 18 18 19 22 19 17 17 16
Wind_Direction
184 191 196 201 200 198 186 170 162 177 170 155 132 161 142 147 152 235 238 82 88 105 98 84 76 61 48 37 32 26 17 7 356 351 347 344 339 337 332 327 323 320 316 310 307 303 301 297 296
187 194 197 200 199 191 179 176 170 183 169 159 157 188 162 173 160 225 170 130 124 110 103 93 76 66 57 46 36 28 16 4 359 354 350 347 344 340 335 330 326 320 316 312 308 305 302 299 296
191 196 196 196 201 189 188 183 192 191 178 169 162 193 191 179 171 185 123 120 115 108 95 81 74 68 61 50 38 30 20 13 7 359 353 350 349 345 339 332 327 323 319 315 310 307 303 299 295
194 196 198 200 206 195 188 203 206 194 184 173 174 190 190 162 161 134 127 120 109 98 91 89 86 75 64 51 40 30 25 19 12 4 357 353 351 348 342 335 330 327 324 320 317 312 305 299 294
195 198 200 208 208 202 192 195 210 195 191 177 186 185 179 151 148 136 128 119 112 106 100 93 84 76 65 49 37 29 23 17 13 7 1 352 350 348 342 337 333 331 327 326 321 316 309 303 297
197 201 206 216 216 207 206 200 208 197 196 179 191 177 180 154 152 140 135 129 123 114 104 93 81 69 57 42 31 24 19 14 9 6 360 353 349 347 342 338 337 334 331 328 325 321 315 310 303
200 203 209 218 220 214 215 222 209 202 203 184 194 181 182 162 161 152 148 141 135 126 109 92 77 63 48 35 25 20 15 10 5 2 357 352 350 348 346 342 340 338 334 332 331 327 322 314 307
206 207 213 220 220 217 217 224 224 204 208 195 193 191 184 171 171 164 160 157 152 141 119 98 76 57 43 30 21 16 14 7 2 358 354 352 350 351 349 346 345 342 339 337 333 330 324 320 318
206 211 216 221 221 218 217 224 224 216 208 202 200 190 191 183 180 180 172 173 171 164 144 114 74 50 36 24 15 11 10 6 1 357 353 352 351 351 349 346 346 344 343 340 337 333 330 329 334
211 211 217 222 224 221 218 223 222 216 207 209 203 198 197 196 192 191 187 187 194 191 189 182 38 27 28 19 10 7 6 2 358 356 354 352 352 351 349 348 346 347 346 343 340 339 340 350 345
212 211 218 220 226 221 221 223 223 218 212 207 206 205 201 204 201 204 204 205 211 212 218 236 284 358 7 9 3 2 3 358 355 355 354 353 353 352 350 350 350 351 349 346 344 348 4 6 350
214 211 220 222 223 223 221 224 218 219 218 210 208 209 207 206 210 211 215 218 220 226 238 250 272 335 341 355 357 358 357 355 352 352 352 353 352 351 350 350 352 354 350 348 353 5 9 11 5
215 215 220 223 224 225 224 227 218 224 222 212 210 213 212 212 214 217 218 222 225 231 242 250 271 313 332 336 346 353 352 351 347 347 350 352 352 350 351 351 354 355 351 350 1 6 4 18 17
224 219 220 224 223 228 226 224 221 226 225 216 215 218 216 216 219 222 224 227 229 232 240 245 253 281 310 327 339 349 348 346 343 343 347 351 352 350 352 353 356 357 352 352 2 1 7 21 24
229 227 220 226 224 227 231 224 220 231 227 227 214 219 224 219 220 226 230 235 237 241 242 249 254 265 293 321 333 338 341 341 340 340 343 350 352 350 352 353 356 357 354 353 0 1 7 20 26
228 231 226 227 227 227 232 223 228 227 231 229 225 217 223 229 225 226 233 238 240 245 246 250 255 266 274 291 313 323 329 334 336 335 339 346 350 350 350 353 355 356 354 354 358 3 11 23 30
228 231 230 227 231 230 230 224 232 229 231 233 231 225 221 226 231 232 232 237 240 245 247 250 257 265 273 287 305 314 322 324 329 330 335 341 346 348 349 352 352 355 353 354 356 4 15 21 34
239 232 231 230 231 232 232 229 229 235 230 232 236 236 230 231 231 233 237 242 245 247 249 249 256 263 271 282 294 305 310 315 320 324 330 336 341 347 348 350 349 353 352 353 355 1 17 17 33
239 236 235 234 233 235 235 233 232 233 236 234 236 238 236 232 237 238 235 238 244 250 253 253 256 263 270 278 290 297 306 305 312 318 326 331 335 344 347 347 346 351 352 352 354 2 8 20 28
243 241 239 240 238 235 235 236 232 237 238 236 238 240 241 238 238 239 241 242 245 247 252 257 260 265 271 276 283 293 300 293 303 313 321 327 331 340 345 344 344 346 348 350 353 359 13 15 26
241 243 242 243 242 239 237 236 234 236 240 239 237 241 242 242 240 241 241 241 241 247 253 256 259 263 269 276 280 286 282 289 297 306 315 322 326 335 340 341 343 340 342 345 351 356 11 21 24
240 242 242 244 245 243 241 238 235 237 240 242 242 239 241 244 243 240 243 244 244 243 246 251 255 258 261 265 270 272 280 285 293 301 309 315 320 326 334 337 338 336 332 340 344 353 2 20 27
242 239 240 242 244 246 243 244 229 237 240 243 245 245 242 241 242 245 244 244 244 245 246 250 254 258 260 261 264 267 273 281 287 296 301 307 314 320 328 330 334 337 326 329 333 344 353 12 23
235 237 242 242 242 246 246 248 237 235 242 245 245 246 249 246 243 243 244 248 248 248 249 250 252 254 255 258 263 268 272 278 283 290 295 302 308 313 320 322 326 332 326 316 323 324 346 354 16
232 234 235 238 244 246 247 247 243 242 242 244 247 248 248 247 246 244 242 244 247 246 246 248 251 254 256 259 263 266 270 273 278 282 287 296 302 307 313 314 316 327 328 311 306 308 320 338 360
238 236 239 244 246 247 249 245 246 248 249 250 248 248 249 251 252 250 247 244 245 246 245 248 250 253 255 256 259 264 267 270 274 278 284 290 297 302 306 306 308 317 326 316 297 294 298 310 335
234 234 236 240 243 242 245 244 243 244 239 238 241 243 244 247 248 249 248 248 246 246 246 246 249 251 256 256 257 260 263 268 271 274 280 285 290 294 297 299 300 307 319 319 296 285 286 289 302
233 235 237 237 238 240 240 236 234 236 234 234 238 242 240 241 244 246 247 246 248 247 248 247 248 251 253 256 259 261 262 265 267 273 278 281 285 286 290 293 293 299 313 316 301 283 278 282 287
232 233 232 233 235 239 239 234 229 229 226 226 219 227 234 236 237 239 241 241 243 245 245 244 244 245 247 249 251 254 257 259 265 270 273 277 280 281 286 286 285 292 306 312 304 284 276 274 277
235 235 238 241 240 240 243 241 244 235 222 215 216 213 218 227 224 223 227 231 236 235 237 238 241 242 241 244 247 251 256 260 262 264 268 272 276 277 279 281 280 288 302 309 305 286 277 274 269
Height
5825 5828 5830 5831 5834 5833 5833 5835 5834 5837 5838 5838 5839 5840 5841 5841 5842 5844 5842 5842 5842 5841 5841 5840 5839 5838 5838 5837 5836 5835 5834 5832 5830 5828 5825 5823 5819 5816 5813 5810 5808 5805 5802 5799 5796 5792 5789 5787 5784
5824 5826 5828 5829 5831 5831 5833 5834 5833 5835 5836 5837 5839 5840 5840 5842 5842 5841 5842 5842 5842 5841 5841 5840 5839 5839 5838 5838 5837 5835 5834 5832 5830 5827 5824 5821 5818 5814 5811 5808 5805 5802 5799 5795 5792 5789 5786 5783 5779
5821 5824 5826 5827 5828 5831 5832 5833 5833 5835 5836 5837 5839 5840 5840 5842 5842 5841 5841 5841 5841 5841 5841 5840 5840 5840 5839 5839 5837 5836 5834 5832 5829 5826 5823 5820 5816 5813 5809 5805 5801 5798 5795 5791 5788 5785 5782 5778 5774
5820 5823 5825 5825 5826 5830 5832 5833 5833 5835 5835 5836 5838 5839 5840 5841 5841 5841 5841 5841 5841 5841 5841 5842 5841 5841 5840 5839 5838 5836 5834 5830 5828 5825 5822 5819 5815 5811 5807 5802 5799 5796 5792 5789 5785 5781 5777 5772 5768
5817 5820 5822 5823 5825 5827 5829 5830 5832 5833 5834 5835 5836 5838 5839 5841 5840 5841 5841 5841 5841 5842 5843 5843 5842 5841 5840 5839 5837 5835 5832 5830 5827 5824 5820 5817 5813 5809 5804 5800 5797 5793 5789 5785 5781 5776 5771 5765 5759
5814 5818 5820 5821 5822 5824 5827 5828 5830 5832 5832 5834 5835 5837 5838 5840 5840 5841 5842 5842 5842 5843 5843 5842 5841 5841 5840 5839 5837 5835 5832 5830 5826 5823 5819 5815 5811 5807 5802 5798 5795 5790 5786 5782 5777 5771 5764 5757 5751
5811 5814 5816 5818 5820 5823 5826 5826 5829 5831 5831 5833 5835 5836 5837 5839 5840 5841 5842 5842 5842 5842 5842 5841 5841 5840 5840 5839 5837 5834 5831 5829 5826 5822 5818 5814 5810 5806 5800 5796 5792 5788 5783 5778 5772 5765 5758 5749 5740
5807 5811 5813 5815 5817 5820 5822 5824 5827 5829 5830 5832 5834 5835 5837 5838 5839 5840 5842 5842 5842 5842 5841 5841 5840 5840 5839 5838 5836 5833 5830 5828 5825 5821 5817 5813 5809 5804 5799 5795 5791 5785 5780 5774 5767 5760 5750 5739 5728
5802 5807 5809 5811 5814 5817 5820 5821 5824 5826 5828 5830 5832 5833 5836 5837 5839 5840 5841 5842 5842 5841 5841 5840 5840 5839 5839 5837 5835 5833 5830 5827 5824 5821 5817 5812 5808 5803 5797 5794 5790 5784 5778 5771 5763 5755 5744 5731 5717
5799 5803 5805 5808 5810 5814 5816 5817 5820 5823 5825 5827 5829 5831 5834 5836 5838 5839 5840 5841 5842 5841 5841 5840 5840 5839 5838 5836 5834 5832 5829 5826 5823 5820 5816 5812 5807 5801 5795 5792 5787 5782 5775 5768 5760 5750 5738 5722 5705
5794 5798 5800 5803 5806 5810 5812 5813 5816 5819 5822 5823 5826 5828 5831 5834 5836 5838 5839 5840 5841 5841 5840 5840 5839 5838 5837 5835 5833 5831 5828 5825 5822 5818 5814 5810 5806 5800 5794 5790 5785 5779 5773 5766 5756 5745 5733 5718 5699
5788 5791 5795 5798 5802 5805 5807 5808 5812 5815 5817 5819 5822 5825 5827 5830 5833 5835 5837 5838 5839 5839 5839 5838 5837 5837 5836 5834 5832 5829 5827 5824 5820 5817 5813 5809 5804 5798 5793 5788 5782 5778 5771 5763 5754 5743 5732 5715 5697
5782 5787 5789 5793 5797 5799 5802 5805 5808 5810 5811 5815 5818 5820 5824 5826 5829 5832 5834 5835 5837 5837 5837 5837 5836 5835 5834 5832 5830 5827 5825 5823 5819 5815 5811 5807 5803 5797 5792 5786 5781 5776 5770 5761 5752 5742 5732 5714 5698
5777 5779 5783 5786 5791 5793 5796 5800 5804 5804 5806 5811 5815 5816 5820 5823 5826 5829 5830 5832 5834 5834 5835 5835 5835 5835 5834 5831 5829 5826 5824 5822 5818 5814 5810 5806 5801 5796 5790 5785 5780 5774 5768 5761 5752 5741 5731 5716 5698
5769 5772 5776 5779 5784 5786 5789 5795 5800 5798 5802 5805 5809 5812 5814 5818 5822 5824 5826 5828 5829 5830 5831 5832 5832 5832 5831 5829 5827 5825 5822 5820 5816 5812 5809 5805 5800 5795 5789 5784 5779 5773 5768 5761 5753 5741 5732 5718 5704
5760 5764 5769 5773 5775 5779 5782 5791 5791 5794 5796 5798 5803 5807 5810 5813 5816 5819 5821 5823 5824 5826 5827 5828 5828 5828 5828 5827 5825 5823 5821 5818 5815 5810 5806 5802 5798 5794 5789 5784 5778 5773 5767 5761 5754 5743 5734 5722 5709
5751 5756 5760 5765 5766 5771 5774 5783 5783 5787 5790 5792 5796 5800 5804 5807 5810 5813 5815 5817 5819 5820 5822 5823 5824 5824 5824 5823 5822 5821 5818 5816 5813 5808 5804 5801 5796 5792 5788 5783 5778 5772 5767 5761 5754 5746 5737 5727 5715
5742 5745 5749 5755 5758 5761 5765 5774 5776 5777 5783 5786 5790 5794 5798 5802 5804 5807 5810 5812 5814 5815 5816 5818 5819 5820 5820 5819 5819 5818 5816 5814 5811 5807 5803 5799 5794 5791 5787 5782 5777 5772 5767 5761 5755 5748 5740 5732 5723
5731 5736 5741 5745 5748 5752 5756 5763 5767 5770 5773 5780 5783 5786 5790 5795 5796 5801 5804 5806 5808 5810 5811 5812 5814 5815 5816 5815 5815 5813 5811 5810 5807 5804 5800 5797 5793 5789 5786 5782 5777 5772 5767 5763 5757 5751 5744 5737 5729
5723 5727 5734 5736 5739 5742 5746 5752 5759 5762 5765 5772 5776 5779 5784 5787 5790 5794 5797 5800 5802 5804 5805 5807 5809 5809 5810 5810 5810 5809 5807 5805 5803 5800 5797 5795 5792 5788 5785 5781 5777 5772 5767 5764 5759 5753 5748 5740 5735
5713 5718 5724 5726 5727 5731 5736 5742 5750 5754 5757 5762 5769 5772 5775 5780 5784 5786 5789 5792 5794 5797 5798 5800 5802 5803 5805 5804 5805 5804 5802 5801 5799 5796 5794 5792 5790 5786 5784 5780 5776 5771 5767 5764 5760 5755 5751 5744 5739
5702 5709 5711 5714 5717 5722 5727 5731 5742 5746 5749 5754 5758 5763 5768 5771 5775 5779 5782 5786 5788 5789 5790 5792 5794 5795 5797 5797 5798 5797 5797 5796 5795 5793 5790 5788 5786 5783 5781 5779 5775 5771 5766 5763 5761 5757 5753 5748 5742
5695 5697 5699 5702 5707 5710 5718 5719 5736 5737 5742 5745 5748 5753 5758 5762 5766 5770 5775 5777 5779 5782 5783 5785 5787 5789 5791 5790 5791 5790 5790 5790 5789 5788 5787 5785 5783 5780 5778 5776 5773 5769 5766 5762 5760 5758 5754 5751 5746
5681 5685 5688 5691 5695 5699 5709 5711 5720 5733 5735 5736 5740 5744 5748 5752 5757 5761 5765 5767 5772 5774 5777 5778 5779 5781 5783 5783 5784 5785 5785 5785 5784 5783 5782 5781 5779 5777 5775 5774 5771 5768 5765 5761 5759 5757 5754 5752 5750
5670 5675 5678 5681 5684 5693 5697 5701 5711 5722 5727 5729 5731 5734 5737 5742 5746 5751 5755 5759 5761 5765 5768 5769 5772 5774 5775 5777 5778 5778 5779 5778 5778 5778 5777 5777 5776 5774 5773 5771 5769 5766 5763 5760 5757 5755 5754 5752 5751
5663 5667 5672 5675 5680 5685 5686 5694 5704 5710 5716 5720 5723 5726 5729 5733 5737 5741 5746 5750 5752 5755 5758 5761 5764 5765 5767 5770 5771 5772 5773 5773 5773 5772 5772 5772 5771 5770 5769 5767 5766 5763 5762 5758 5756 5753 5752 5751 5751
5649 5655 5663 5665 5670 5675 5680 5690 5696 5701 5707 5709 5711 5716 5720 5723 5726 5731 5735 5740 5744 5746 5749 5752 5755 5757 5760 5763 5764 5765 5766 5767 5767 5766 5767 5767 5766 5765 5764 5764 5762 5760 5758 5756 5753 5751 5750 5749 5749
5634 5647 5648 5653 5659 5665 5674 5680 5688 5693 5698 5699 5703 5706 5710 5714 5718 5722 5725 5730 5734 5737 5740 5743 5746 5749 5751 5754 5757 5758 5759 5760 5761 5761 5761 5762 5761 5760 5759 5759 5758 5757 5754 5752 5751 5749 5747 5747 5747
5620 5622 5632 5641 5649 5656 5664 5673 5679 5684 5691 5693 5697 5699 5702 5706 5710 5713 5716 5720 5725 5728 5731 5734 5737 5740 5743 5746 5748 5750 5752 5753 5754 5754 5755 5755 5756 5755 5755 5754 5753 5753 5751 5748 5747 5745 5744 5743 5743
5603 5612 5622 5631 5642 5649 5656 5666 5671 5678 5683 5686 5690 5694 5697 5699 5702 5704 5707 5711 5715 5719 5722 5725 5728 5731 5733 5736 5739 5741 5744 5746 5747 5747 5748 5748 5749 5750 5749 5749 5749 5748 5747 5745 5743 5742 5740 5739 5739